Flag for Australia Weather past 2 weeks in Port Hedland, Western Australia, Australia

Now
70 °F

Clear.


Feels Like: 70 °F
Forecast: 55 / 78 °F
Wind: 9 mph from North

Location: Port Hedland Pardoo

Current Time: Jul 25, 2014 at 5:42:29 PM

Latest Report: Jul 25, 2014 at 5:00 PM


Visibility: N/A

Pressure: 30.07 "Hg

Humidity: 38%

Dew point: 43 °F

Location of Port HedlandLocation

Historic Weather in Port Hedland — Graph

°F

Port Hedland temperature yesterday

Maximum temperature yesterday: 77 °F (at 2:00 PM)
Minimum temperature yesterday: 52 °F (at 5:00 AM)
Average temperature yesterday: 64 °F

Past Weeks' High & Low Weather Summary

 TemperatureHumidityPressure
High81 °F (Jul 11, 3:00 PM)100% (Jul 13, 2:00 AM)30.15 "Hg (Jul 13, 2:00 AM)
Low48 °F (Jul 11, 5:30 AM)9% (Jul 12, 11:30 AM)29.86 "Hg (Jul 12, 2:00 PM)
Average65 °F61%30.02 "Hg
* Reported Jul 10 4:00 PM — Jul 25 4:00 PM, Port Hedland, Weather by CustomWeather, © 2014

Note: Actual official high and low records may vary slightly from our data, if they occured in-between our weather recording intervals... More about our weather records

Advertising

Port Hedland weather history for previous 24 hours

 ConditionsComfort  
Time TempWeatherWind HumidityBarometerVisibility
4:00 PM
Jul 25
75 °FSunny.14 mph16%30.07 "HgN/A
3:30 PM75 °FSunny.15 mph15%30.07 "HgN/A
3:00 PM77 °FSunny.15 mph15%30.07 "HgN/A
2:30 PM75 °FSunny.14 mph15%30.07 "HgN/A
2:00 PM75 °FSunny.17 mph14%30.09 "HgN/A
1:30 PM75 °FSunny.13 mph18%30.09 "HgN/A
1:00 PM75 °FSunny.13 mph18%30.09 "HgN/A
12:30 PM73 °FSunny.18 mph17%30.12 "HgN/A
12:05 PM73 °FSunny.17 mph20%30.12 "HgN/A
11:30 AM73 °FSunny.17 mph20%30.15 "HgN/A
11:00 AM72 °FSunny.22 mph20%30.15 "HgN/A
10:30 AM70 °FSunny.23 mph23%30.15 "HgN/A
10:00 AM68 °FSunny.22 mph26%30.15 "HgN/A
9:30 AM68 °FSunny.21 mph28%30.15 "HgN/A
9:00 AM64 °FSunny.18 mph32%30.15 "HgN/A
8:00 AM59 °FSunny.10 mph51%30.15 "HgN/A
7:30 AM54 °FSunny.8 mph63%30.12 "HgN/A
7:00 AM50 °FSunny.8 mph76%30.12 "HgN/A
6:30 AM48 °FSunny.10 mph82%30.12 "HgN/A
6:00 AM50 °FSunny.8 mph76%30.12 "HgN/A
5:30 AM50 °FClear.8 mph76%30.12 "HgN/A
5:00 AM52 °FClear.7 mph72%30.09 "HgN/A
4:30 AM50 °FClear.8 mph76%30.09 "HgN/A
4:00 AM50 °FClear.9 mph76%30.09 "HgN/A
3:30 AM52 °FClear.7 mph72%30.09 "HgN/A
3:00 AM52 °FClear.9 mph72%30.09 "HgN/A
2:30 AM52 °FClear.8 mph72%30.07 "HgN/A
2:00 AM54 °FClear.8 mph67%30.07 "HgN/A
1:30 AM54 °FClear.7 mph67%30.09 "HgN/A
1:00 AM54 °FClear.8 mph67%30.09 "HgN/A
12:30 AM55 °FClear.8 mph59%30.09 "HgN/A
12:00 AM55 °FClear.9 mph59%30.09 "HgN/A
11:30 PM
Jul 24
55 °FClear.7 mph63%30.09 "HgN/A
11:00 PM55 °FClear.7 mph63%30.09 "HgN/A
10:30 PM57 °FClear.7 mph59%30.09 "HgN/A
10:00 PM57 °FClear.8 mph59%30.09 "HgN/A
9:30 PM59 °FClear.7 mph55%30.09 "HgN/A
9:00 PM59 °FClear.8 mph51%30.09 "HgN/A
8:30 PM61 °FClear.9 mph48%30.09 "HgN/A
8:00 PM63 °FClear.8 mph42%30.07 "HgN/A
7:30 PM64 °FClear.8 mph40%30.07 "HgN/A
7:00 PM64 °FClear.8 mph40%30.07 "HgN/A
6:30 PM68 °FClear.7 mph33%30.04 "HgN/A
6:00 PM70 °FClear.7 mph27%30.04 "HgN/A
5:30 PM73 °FClear.8 mph19%30.01 "HgN/A
5:00 PM75 °FClear.10 mph15%30.04 "HgN/A
Weather by CustomWeather, © 2014

See weather overviewHow to use our weather pages